Regional Weather Roundup
Issued by NWS

Home | Current Version | Previous Version | Text Only | Print | Product List | Glossary On
Versions: 1 2 3 4 5 6 7 8 9 10 11 12 13 14 15 16 17 18 19 20 21 22 23 24 25 26 27
000
ASUS44 KJAN 220010
RWRMS

MISSISSIPPI HOURLY WEATHER ROUNDUP
NATIONAL WEATHER SERVICE JACKSON MS
600 PM CST SAT JAN 21 2017

NOTE: "FAIR: INDICATES FEW OR NO CLOUDS BELOW 12,000 FEET WITH NO
SIGNIFICANT WEATHER AND/OR OBSTRUCTIONS TO VISIBILITY.

MSZ001>002-007>008-010>013-018>021-025>028-034>036-220100-
NORTHWEST MISSISSIPPI

CITY           SKY/WX    TMP DP  RH WIND       PRES   REMARKS
BATESVILLE     FAIR      60  54  79 E3        29.56R
CLARKSDALE     CLEAR     64  59  82 SE7       29.53R
CLEVELAND      FAIR      66  60  81 SE5       29.52S
GREENWOOD      CLOUDY    66  54  65 SE5       29.54S
6HR MIN TEMP:  66; 6HR MAX TEMP:  72;

GREENVILLE     CLOUDY    66  56  70 E5        29.51S
6HR MIN TEMP:  65; 6HR MAX TEMP:  71;

OLIVE BRANCH   MOCLDY   N/A N/A N/A CALM      29.54F
OXFORD         FAIR      59  54  82 E5        29.58S
TUNICA         CLEAR     59  55  88 SE6       29.54S
WINONA         FAIR      62  56  82 CALM      29.54F
$$

MSZ003>006-009-014>017-022>024-029>033-037>039-220100-
NORTHEAST MISSISSIPPI

CITY           SKY/WX    TMP DP  RH WIND       PRES   REMARKS
COLUMBUS AFB   NOT AVBL
CORINTH        FAIR      61  54  77 SE3       29.59R
GOLDN TRIANGLE CLEAR     64  54  68 SE9       29.56R
STARKVILLE     FAIR      63  55  77 SE6       29.60S
TUPELO         PTCLDY    64  53  67 E6        29.59R
6HR MIN TEMP:  64; 6HR MAX TEMP:  69;

$$

MSZ040-058-220100-
CENTRAL MISSISSIPPI

CITY           SKY/WX    TMP DP  RH WIND       PRES   REMARKS
JACKSON INTL   CLOUDY    68  59  73 E8        29.52F
6HR MIN TEMP:  67; 6HR MAX TEMP:  73;

JACKSON HAWKNS CLOUDY    69  58  67 E8        29.52F
6HR MIN TEMP:  67; 6HR MAX TEMP:  73;

MADISON        FAIR      64  59  82 NE3       29.51F
MERIDIAN KEY   CLOUDY    69  61  75 E3        29.58F
6HR MIN TEMP:  68; 6HR MAX TEMP:  74;

MERIDIAN NAS   MOCLDY    65  57  75 E9        29.60S
6HR MIN TEMP:  65; 6HR MAX TEMP:  72;

RAYMOND        FAIR      68  61  77 E7        29.51F
VICKSBURG VKS  MOCLDY    70  59  68 CALM      29.49S
$$

MSZ059>079-220100-
SOUTH MISSISSIPPI

CITY           SKY/WX    TMP DP  RH WIND       PRES   REMARKS
BROOKHAVEN     MOCLDY    68  63  83 CALM      29.53F
HATTIESBURG    MOCLDY    70  64  81 SE8       29.55F
6HR MIN TEMP:  70; 6HR MAX TEMP:  76;

LAUREL         CLOUDY    69  64  85 SE6       29.57S
MCCOMB         PTCLDY    69  62  78 SE5       29.51F
6HR MIN TEMP:  69; 6HR MAX TEMP:  74;

NATCHEZ        MOCLDY    70  59  68 SE8       29.48F
6HR MIN TEMP:  70; 6HR MAX TEMP:  73;

PINE BELT      CLOUDY    70  61  73 SE5       29.57F
6HR MIN TEMP:  64; 6HR MAX TEMP:  75;

$$

MSZ080>082-220100-
COASTAL MISSISSIPPI

CITY           SKY/WX    TMP DP  RH WIND       PRES   REMARKS
BILOXI         TSTM      68  68 100 SE12      29.51F FOG
6HR MIN TEMP:  68; 6HR MAX TEMP:  70;

PASCAGOULA     CLOUDY    68  63  84 E8        29.56F
6HR MIN TEMP:  68; 6HR MAX TEMP:  75;

GULFPORT       TSTM      68  68 100 E12       29.51F
6HR MIN TEMP:  68; 6HR MAX TEMP:  69; 6HR PCP:  0.01;

$$

LAZ007>009-015>016-023>026-220100-
NORTHEAST LOUISIANA

CITY           SKY/WX    TMP DP  RH WIND       PRES   REMARKS
BASTROP        FAIR      67  61  82 E5        29.44F
TALLULAH/VBURG CLOUDY    66  60  81 E8        29.49F
6HR MIN TEMP:  66; 6HR MAX TEMP:  72;

VIDALIA        FAIR      68  62  81 SE5       29.50F
$$




USA.gov is the U.S. government's official web portal to all federal, state and local government web resources and services.